Tracking 27402 objects as of 3-Jun-2023
HD Live streaming from Space Station
objects crossing your sky now

KL-BETA A

Track KL-BETA A now!
10-day predictions


NORAD ID: 49059
Int'l Code: 2021-070A
Perigee: 908.8 km
Apogee: 917.9 km
Inclination: 89.0 °
Period: 103.1 minutes
Semi major axis: 7284 km
RCS: Unknown
Launch date: August 4, 2021
Source: People's Republic of China (PRC)
Launch site: Taiyaun Space Center, China (TSC)
Your satellite tracking list
Your tracking list is empty




NASA's NSSDC Master Catalog

Two Line Element Set (TLE):
1 49059U 21070A   23153.71455107  .00000106  00000-0  67224-4 0  9993
2 49059  88.9969 340.5580 0006224 355.9034   4.2091 13.96425705 93129
Source of the keplerian elements: AFSPC